QPF
0.01 0.01 0.00 0.00 0.03 0.07 0.02 0.03 0.03 0.01 0.01 0.06 0.05 0.05 0.05 0.03 0.03 0.00 0.02 0.03 0.07 0.02 0.02 0.00 0.00 0.01 0.00 0.00 0.00 0.00 0.00 0.00 0.01
0.01 0.04 0.00 0.00 0.00 0.00 0.00 0.00 0.02 0.07 0.04 0.06 0.08 0.03 0.02 0.02 0.17 0.02 0.00 0.03 0.06 0.05 0.03 0.00 0.01 0.00 0.00 0.00 0.00 0.00 0.00 0.00 0.00
0.02 0.02 0.00 0.00 0.00 0.00 0.00 0.00 0.02 0.02 0.02 0.05 0.04 0.04 0.06 0.05 0.05 0.03 0.00 0.03 0.01 0.01 0.01 0.00 0.00 0.00 0.00 0.00 0.00 0.00 0.00 0.00 0.00
0.00 0.00 0.00 0.00 0.00 0.00 0.00 0.00 0.00 0.00 0.00 0.01 0.01 0.02 0.02 0.10 0.06 0.01 0.00 0.03 0.06 0.04 0.04 0.02 0.02 0.00 0.00 0.00 0.00 0.00 0.00 0.00 0.00
0.00 0.00 0.00 0.00 0.00 0.00 0.00 0.00 0.00 0.00 0.00 0.00 0.00 0.00 0.00 0.01 0.02 0.00 0.01 0.06 0.09 0.17 0.11 0.04 0.05 0.03 0.02 0.02 0.00 0.00 0.00 0.00 0.00
0.00 0.00 0.00 0.00 0.00 0.00 0.00 0.00 0.00 0.00 0.00 0.00 0.00 0.00 0.00 0.00 0.00 0.00 0.09 0.10 0.11 0.16 0.06 0.04 0.08 0.10 0.11 0.11 0.03 0.00 0.00 0.00 0.00
0.00 0.00 0.00 0.00 0.00 0.00 0.00 0.00 0.00 0.00 0.00 0.00 0.00 0.00 0.00 0.00 0.00 0.00 0.07 0.13 0.12 0.09 0.12 0.05 0.09 0.19 0.23 0.20 0.06 0.00 0.00 0.00 0.00
0.00 0.00 0.00 0.00 0.00 0.00 0.00 0.00 0.00 0.00 0.00 0.00 0.00 0.00 0.00 0.00 0.00 0.00 0.00 0.04 0.12 0.16 0.10 0.24 0.23 0.13 0.10 0.22 0.06 0.00 0.00 0.00 0.00
0.00 0.00 0.00 0.00 0.00 0.00 0.00 0.00 0.00 0.00 0.00 0.00 0.00 0.00 0.00 0.00 0.00 0.00 0.00 0.00 0.00 0.04 0.14 0.16 0.19 0.09 0.06 0.04 0.08 0.00 0.00 0.00 0.00
0.00 0.00 0.00 0.00 0.00 0.00 0.00 0.00 0.00 0.00 0.00 0.00 0.00 0.00 0.00 0.00 0.00 0.00 0.00 0.00 0.00 0.00 0.01 0.04 0.09 0.08 0.05 0.02 0.01 0.01 0.01 0.00 0.00
0.00 0.00 0.00 0.00 0.00 0.00 0.00 0.00 0.00 0.00 0.00 0.00 0.00 0.00 0.00 0.00 0.00 0.00 0.00 0.00 0.00 0.00 0.00 0.00 0.00 0.01 0.01 0.00 0.00 0.00 0.01 0.01 0.01
0.00 0.00 0.00 0.00 0.00 0.00 0.00 0.00 0.00 0.00 0.00 0.00 0.00 0.00 0.00 0.00 0.00 0.00 0.00 0.00 0.00 0.00 0.00 0.00 0.00 0.00 0.00 0.00 0.00 0.00 0.00 0.00 0.00
0.00 0.00 0.00 0.00 0.00 0.00 0.00 0.00 0.00 0.00 0.00 0.00 0.00 0.00 0.00 0.00 0.00 0.00 0.00 0.00 0.00 0.00 0.00 0.00 0.00 0.00 0.00 0.00 0.00 0.00 0.00 0.00 0.00
0.00 0.00 0.00 0.00 0.00 0.00 0.00 0.00 0.00 0.00 0.00 0.00 0.00 0.00 0.00 0.00 0.00 0.00 0.00 0.00 0.00 0.00 0.00 0.00 0.00 0.00 0.00 0.00 0.01 0.00 0.00 0.00 0.00
0.00 0.00 0.00 0.00 0.00 0.00 0.00 0.00 0.00 0.00 0.00 0.00 0.00 0.00 0.00 0.00 0.00 0.00 0.00 0.00 0.00 0.00 0.00 0.00 0.00 0.00 0.00 0.00 0.00 0.01 0.01 0.01 0.00
0.00 0.00 0.00 0.00 0.00 0.00 0.00 0.00 0.00 0.00 0.00 0.00 0.00 0.00 0.00 0.00 0.00 0.00 0.00 0.00 0.00 0.00 0.00 0.00 0.00 0.00 0.00 0.00 0.00 0.00 0.01 0.01 0.01
0.00 0.00 0.00 0.00 0.00 0.00 0.00 0.00 0.00 0.00 0.00 0.00 0.00 0.00 0.00 0.00 0.00 0.00 0.00 0.00 0.00 0.00 0.00 0.00 0.00 0.00 0.00 0.00 0.00 0.00 0.00 0.00 0.01
0.00 0.00 0.00 0.00 0.00 0.00 0.00 0.00 0.00 0.00 0.00 0.00 0.00 0.00 0.00 0.00 0.00 0.00 0.00 0.00 0.00 0.00 0.00 0.00 0.00 0.00 0.00 0.00 0.00 0.00 0.00 0.00 0.00
0.00 0.00 0.00 0.00 0.00 0.00 0.00 0.00 0.00 0.00 0.00 0.00 0.00 0.00 0.00 0.00 0.00 0.00 0.00 0.00 0.00 0.00 0.00 0.00 0.00 0.00 0.00 0.00 0.00 0.00 0.00 0.00 0.00
0.00 0.00 0.00 0.00 0.00 0.00 0.00 0.00 0.00 0.00 0.00 0.00 0.00 0.00 0.00 0.00 0.00 0.00 0.00 0.00 0.00 0.00 0.00 0.00 0.00 0.00 0.00 0.00 0.00 0.00 0.00 0.00 0.00
MSLP
1021.00 1021.06 1020.77 1020.51 1020.33 1019.89 1019.92 1020.25 1020.46 1020.31 1020.29 1020.12 1019.97 1020.03 1020.21 1020.35 1020.48 1020.55 1020.68 1020.61 1020.42 1020.58 1020.72 1020.74 1020.71 1020.76 1020.79 1020.90 1020.95 1021.03 1020.99 1021.00 1021.07
1021.47 1021.49 1021.33 1020.95 1020.89 1020.58 1020.32 1020.68 1020.77 1020.72 1020.67 1020.64 1020.65 1020.71 1020.82 1020.93 1020.98 1021.02 1020.98 1021.01 1020.80 1020.87 1020.86 1021.05 1020.98 1021.08 1021.14 1021.23 1021.35 1021.34 1021.43 1021.46 1021.53
1022.06 1022.17 1021.84 1021.38 1021.37 1021.25 1021.08 1020.96 1021.19 1021.18 1021.20 1021.30 1021.26 1021.40 1021.35 1021.43 1021.42 1021.41 1021.28 1021.17 1021.13 1021.24 1021.38 1021.42 1021.41 1021.40 1021.54 1021.59 1021.68 1021.78 1021.86 1021.89 1021.86
1022.62 1022.45 1022.45 1021.87 1021.88 1021.85 1021.65 1021.51 1021.36 1021.68 1021.77 1021.75 1021.87 1021.98 1021.98 1021.82 1021.85 1021.71 1021.69 1021.50 1021.46 1021.66 1021.85 1021.79 1021.82 1021.83 1021.98 1021.93 1022.02 1022.17 1022.23 1022.28 1022.26
1022.93 1022.90 1022.81 1022.76 1022.22 1022.15 1022.08 1021.90 1021.93 1021.88 1022.26 1022.11 1021.98 1022.21 1022.39 1022.46 1022.35 1022.24 1022.01 1022.02 1022.10 1022.04 1022.14 1022.17 1022.28 1022.22 1022.30 1022.32 1022.48 1022.60 1022.58 1022.64 1022.68
1023.29 1023.30 1023.14 1022.89 1022.61 1022.31 1022.45 1022.50 1022.37 1022.38 1022.70 1022.76 1022.81 1022.95 1023.30 1023.28 1023.08 1022.69 1022.38 1022.25 1022.37 1022.42 1022.63 1022.63 1022.76 1022.70 1022.56 1022.82 1022.92 1022.99 1022.97 1023.03 1023.15
1023.97 1023.84 1023.86 1023.72 1023.56 1023.27 1023.18 1023.23 1023.28 1023.39 1023.51 1023.49 1023.58 1023.68 1023.93 1024.00 1023.75 1023.35 1022.90 1022.71 1022.67 1022.86 1022.89 1022.89 1023.17 1023.04 1023.01 1023.14 1023.36 1023.55 1023.12 1023.53 1023.65
1024.79 1024.40 1024.43 1024.36 1024.36 1023.97 1023.78 1024.01 1023.99 1024.10 1024.24 1024.28 1024.18 1024.32 1024.57 1024.72 1024.54 1024.06 1023.45 1023.13 1023.01 1023.05 1023.16 1023.16 1023.52 1023.37 1023.33 1023.55 1023.59 1023.59 1023.60 1023.83 1023.92
1025.61 1025.38 1025.11 1025.12 1025.26 1024.81 1024.61 1024.41 1024.57 1024.35 1024.50 1024.56 1024.81 1024.95 1025.07 1025.14 1025.08 1024.72 1024.37 1023.96 1023.63 1023.47 1023.52 1023.53 1023.55 1023.73 1023.83 1023.68 1023.86 1023.96 1024.04 1024.19 1024.19
1025.57 1026.01 1026.09 1026.06 1025.97 1025.66 1025.15 1024.92 1024.66 1024.97 1025.02 1025.08 1025.16 1025.33 1025.32 1025.31 1025.37 1025.39 1025.12 1024.84 1024.51 1024.19 1023.97 1023.96 1024.13 1024.22 1024.36 1024.25 1024.31 1024.43 1024.42 1024.40 1024.43
1026.23 1026.62 1026.43 1026.63 1026.60 1026.33 1025.74 1025.38 1025.20 1025.38 1025.45 1025.55 1025.50 1025.43 1025.57 1025.60 1025.68 1025.78 1025.74 1025.50 1025.35 1025.00 1024.78 1024.70 1024.62 1024.69 1024.98 1025.02 1025.10 1025.12 1025.06 1024.98 1024.85
1027.18 1027.32 1027.41 1027.15 1027.16 1026.83 1026.21 1025.85 1025.79 1025.97 1025.92 1026.00 1025.94 1025.97 1026.06 1026.04 1026.02 1026.12 1026.19 1026.16 1026.10 1025.88 1025.60 1025.56 1025.51 1025.47 1025.43 1025.53 1025.69 1025.85 1025.76 1025.61 1025.27
1028.20 1028.35 1028.03 1027.53 1027.74 1027.64 1027.09 1026.39 1026.40 1026.62 1026.61 1026.55 1026.58 1026.38 1026.32 1026.41 1026.49 1026.52 1026.62 1026.76 1026.92 1026.77 1026.63 1026.54 1026.58 1026.57 1026.38 1026.20 1026.16 1026.23 1026.33 1026.06 1025.84
1029.10 1029.18 1028.69 1027.94 1028.18 1028.46 1028.06 1027.20 1027.13 1027.26 1027.18 1027.06 1026.88 1026.83 1026.92 1026.94 1026.93 1027.05 1027.14 1027.26 1027.41 1027.67 1027.81 1027.83 1027.93 1027.76 1027.56 1027.28 1027.03 1026.88 1026.76 1026.60 1026.34
1030.10 1029.81 1029.44 1028.66 1028.68 1029.10 1028.75 1028.30 1027.92 1028.01 1027.90 1027.53 1027.49 1027.43 1027.38 1027.47 1027.79 1027.87 1027.85 1027.91 1027.98 1028.30 1028.50 1028.87 1029.14 1029.04 1028.90 1028.66 1028.39 1027.88 1027.52 1027.30 1026.96
1030.80 1030.62 1030.36 1029.50 1029.51 1030.00 1029.55 1029.09 1028.79 1028.54 1028.29 1028.08 1028.09 1028.11 1027.79 1028.18 1028.46 1028.61 1028.74 1028.87 1028.96 1029.01 1029.40 1029.78 1030.11 1030.29 1030.07 1029.83 1029.54 1029.04 1028.56 1028.15 1027.64
1031.12 1031.19 1031.31 1030.54 1030.22 1030.40 1030.34 1030.00 1029.70 1029.67 1029.35 1029.29 1029.05 1029.01 1029.01 1029.15 1029.33 1029.27 1029.54 1029.92 1029.88 1029.79 1030.21 1030.53 1030.96 1031.12 1031.12 1030.85 1030.47 1029.97 1029.46 1028.75 1028.20
1031.95 1031.58 1031.74 1031.41 1031.10 1031.41 1031.50 1031.09 1030.79 1030.69 1030.41 1030.14 1029.97 1029.91 1029.92 1030.06 1030.46 1030.39 1030.37 1030.70 1030.85 1031.02 1031.12 1031.09 1031.53 1031.80 1031.89 1031.56 1031.20 1030.89 1030.41 1029.52 1028.75
1032.75 1032.35 1032.45 1032.24 1031.94 1032.11 1032.25 1032.14 1031.77 1031.42 1031.58 1031.20 1031.09 1031.02 1031.07 1031.00 1031.16 1031.07 1031.42 1031.34 1031.72 1031.93 1031.79 1032.02 1032.23 1032.34 1032.44 1032.31 1031.92 1031.65 1031.21 1030.39 1029.78
1033.65 1033.23 1033.33 1033.17 1032.86 1032.93 1032.99 1033.01 1032.91 1032.64 1032.51 1032.59 1032.26 1031.83 1031.99 1032.15 1032.17 1032.13 1032.39 1032.40 1032.49 1032.52 1032.57 1032.92 1033.17 1033.37 1033.32 1033.01 1032.84 1032.42 1031.94 1031.12 1030.37
Thickness
5656 5656 5661 5666 5670 5675 5677 5675 5674 5677 5679 5682 5685 5686 5687 5687 5688 5690 5688 5689 5691 5690 5690 5691 5692 5693 5693 5693 5693 5693 5694 5694 5693
5649 5649 5655 5661 5662 5666 5671 5669 5669 5671 5673 5675 5677 5678 5681 5681 5682 5683 5684 5683 5686 5686 5687 5686 5687 5687 5688 5688 5688 5688 5688 5688 5687
5642 5641 5647 5655 5656 5658 5662 5664 5663 5665 5666 5666 5669 5670 5673 5673 5675 5677 5679 5679 5680 5680 5680 5681 5682 5682 5682 5682 5682 5681 5682 5682 5683
5636 5639 5638 5648 5650 5650 5653 5655 5658 5657 5658 5659 5661 5663 5666 5667 5668 5671 5673 5674 5674 5674 5674 5675 5675 5675 5675 5676 5675 5674 5675 5676 5677
5635 5634 5635 5636 5644 5645 5647 5649 5649 5652 5650 5651 5657 5658 5659 5660 5663 5664 5667 5667 5667 5668 5667 5669 5667 5667 5667 5668 5667 5668 5669 5669 5670
5630 5630 5630 5632 5636 5641 5640 5640 5642 5642 5642 5643 5647 5647 5647 5650 5653 5657 5661 5661 5661 5662 5661 5663 5661 5661 5663 5661 5659 5659 5660 5661 5661
5622 5624 5623 5623 5625 5630 5633 5632 5632 5631 5633 5635 5636 5639 5638 5640 5644 5648 5653 5655 5656 5655 5657 5657 5655 5656 5656 5653 5651 5650 5655 5652 5652
5614 5619 5618 5618 5617 5622 5625 5624 5625 5625 5624 5626 5629 5630 5629 5631 5634 5639 5644 5647 5649 5650 5651 5651 5647 5649 5649 5646 5645 5645 5646 5645 5646
5605 5609 5611 5612 5609 5614 5617 5619 5618 5619 5618 5620 5620 5621 5621 5623 5626 5630 5634 5636 5639 5642 5642 5643 5642 5641 5640 5642 5640 5640 5639 5639 5640
5603 5599 5601 5601 5603 5607 5612 5614 5615 5613 5613 5613 5614 5615 5617 5618 5619 5621 5623 5626 5628 5631 5634 5635 5634 5633 5633 5635 5635 5633 5634 5636 5636
5598 5593 5598 5596 5596 5599 5605 5609 5610 5608 5608 5608 5609 5612 5612 5612 5613 5614 5616 5619 5620 5622 5623 5624 5626 5626 5625 5626 5627 5627 5629 5629 5630
5587 5588 5589 5592 5588 5591 5598 5602 5603 5602 5603 5604 5604 5606 5606 5605 5607 5609 5610 5612 5612 5613 5616 5616 5617 5619 5619 5619 5619 5620 5620 5622 5625
5578 5577 5583 5587 5582 5582 5588 5594 5596 5596 5597 5598 5598 5600 5600 5599 5597 5601 5602 5603 5603 5605 5607 5607 5607 5607 5609 5610 5611 5611 5612 5614 5616
5567 5567 5573 5581 5577 5574 5578 5585 5588 5588 5590 5592 5591 5593 5592 5592 5592 5593 5594 5595 5595 5595 5595 5595 5594 5595 5597 5599 5601 5603 5604 5606 5608
5555 5558 5563 5571 5571 5566 5570 5574 5578 5579 5580 5585 5584 5584 5584 5586 5584 5584 5585 5585 5586 5585 5585 5583 5581 5582 5582 5584 5585 5590 5593 5595 5598
5545 5547 5551 5561 5561 5556 5559 5563 5568 5571 5573 5576 5576 5575 5576 5574 5573 5573 5574 5573 5574 5573 5573 5570 5569 5568 5569 5570 5572 5576 5580 5582 5586
5536 5538 5537 5547 5551 5548 5549 5552 5556 5557 5559 5560 5563 5567 5565 5563 5561 5562 5561 5559 5561 5561 5558 5558 5556 5555 5556 5557 5559 5563 5566 5571 5576
5523 5528 5527 5533 5538 5536 5535 5540 5542 5543 5545 5548 5550 5556 5556 5552 5548 5547 5548 5546 5547 5545 5545 5546 5543 5542 5543 5545 5547 5548 5551 5558 5564
5509 5515 5515 5519 5524 5524 5523 5525 5529 5532 5530 5533 5535 5535 5534 5538 5542 5538 5533 5533 5532 5532 5533 5532 5530 5529 5529 5532 5534 5534 5537 5543 5546
5493 5500 5501 5504 5509 5509 5510 5511 5513 5516 5517 5516 5518 5523 5521 5519 5523 5527 5518 5518 5517 5520 5519 5517 5516 5515 5515 5515 5518 5519 5522 5528 5533